Regional Weather Roundup
Issued by NWS

Home | Current Version | Previous Version | Text Only | Print | Product List | Glossary Off
Versions: 1 2 3 4 5 6 7 8 9 10 11 12 13 14 15 16 17 18 19 20 21 22 23 24 25 26 27 28 29 30 31 32 33 34 35 36 37 38 39 40 41 42 43 44 45 46 47 48

000
ASUS45 KBOU 260310
RWRCO

WEATHER ROUNDUP FOR COLORADO
NATIONAL WEATHER SERVICE DENVER/BOULDER CO
900 PM MDT WED APR 25 2018

NOTE: "FAIR" INDICATES FEW OR NO CLOUDS BELOW 12000 FEET WITH NO
SIGNIFICANT WEATHER AND/OR OBSTRUCTIONS TO VISIBILITY.

COZ001>005-013-030-031-260400-
...NORTHWEST COLORADO...

CITY           SKY/WX    TMP DP  RH WIND       PRES   REMARKS
CRAIG          FAIR      45  25  45 VRB5      30.10S
HAYDEN         FAIR      50  22  33 S6        30.13R
MEEKER         FAIR      47  25  42 E3        30.13R
RANGELY        FAIR      51  23  33 CALM      30.07R
RABBIT EARS PA FAIR      34  19  55 W12G20    30.27R WCI  25
STEAMBOAT SPGS FAIR      49  18  29 S3        30.13R
WALDEN         FAIR      50   7  17 SE5       30.18S
$$

COZ006>008-011-260400-
...WEST CENTRAL VALLEYS...

CITY           SKY/WX    TMP DP  RH WIND       PRES   REMARKS
GRAND JUNCTION FAIR      56  10  16 N8        30.08R
MONTROSE       FAIR      55  13  18 S7        30.14R
EAGLE          FAIR      58   1  10 SW9       30.14R
RIFLE          FAIR      56  10  16 W9        30.09R
DELTA          FAIR      62   9  12 SW5       30.08R
NUCLA          FAIR      59  -6   7 SW5       30.18R
$$

COZ017>023-064>068-260400-
...SOUTHWEST COLORADO...

CITY           SKY/WX    TMP DP  RH WIND       PRES   REMARKS
DURANGO        FAIR      56  -4   8 SW9       30.14R
CORTEZ         FAIR      56  -5   8 CALM      30.15R
PAGOSA SPRINGS FAIR      49   1  14 CALM      30.19S
TELLURIDE      FAIR      48  -1  13 CALM      30.31R
WOLF CREEK PAS FAIR      36   5  27 S20G31    30.42S
$$

COZ009-010-012-014-032>034-037-058>063-260400-
...CENTRAL COLORADO...

CITY           SKY/WX    TMP DP  RH WIND       PRES   REMARKS
ASPEN          FAIR      45  18  34 SW8       30.18R
BUENA VISTA    FAIR      43  16  33 W9        30.17R
COPPER MTN     NOT AVBL
BERTHOUD PASS  FAIR      30  21  69 W28G38    30.34F WCI  16
COTTONWOOD PAS FAIR      52 -15   6 W14G22    30.26R
GUNNISON       FAIR      48   7  18 CALM      30.19R
GRANBY         FAIR      44  17  34 SE5       30.18R
KREMMLING      FAIR      55  18  22 CALM      30.16R
LEADVILLE      FAIR      38   9  30 N3        30.25S
MONARCH PASS   FAIR      36   1  23 W29       30.46R
SALIDA         FAIR      54  11  17 SE10      30.22R
SUNLIGHT       FAIR      32  10  40 SW13G21   30.35R WCI  22
WILKERSON PASS FAIR      39  -8  13 NW8       30.33S
$$

COZ069>075-260400-
...SAN LUIS VALLEY/SANGRE DE CRISTO MOUNTAINS...

CITY           SKY/WX    TMP DP  RH WIND       PRES   REMARKS
ALAMOSA        FAIR      46  12  25 S5        30.12S
DEL NORTE      FAIR      49   3  15 NW9       30.17R
LA VETA PASS   FAIR      39   9  28 S13       30.38S
SAGUACHE       NOT AVBL
$$

COZ035-036-038>040-260400-
...NORTHERN COLORADO FRONT RANGE...

CITY           SKY/WX    TMP DP  RH WIND       PRES   REMARKS
DENVER INTL AP FAIR      47  27  45 S13       30.02F
AURORA         PTCLDY    53  25  33 S14       30.04S
FRONT RANGE AP CLEAR     48  28  46 SE9       30.05S
ERIE MUNI ARPT FAIR      47  34  60 CALM      30.07R
BOULDER MUN AP FAIR      55  28  35 W6        30.03R
CENTENNIAL     MOCLDY    53  31  42 S10       30.05S
BROOMFIELD     PTCLDY    55  25  30 W6        30.04S
FORT COLLINS   FAIR      56  24  29 W3        30.02S
LONGMONT       FAIR      49  33  53 NW7       30.04S
$$

COZ041-046-047-076>085-087-088-260400-
...PIKES PEAK/PALMER DIVIDE AND SOUTHERN FOOTHILLS...

CITY           SKY/WX    TMP DP  RH WIND       PRES   REMARKS
COLO. SPRINGS  FAIR      49  25  39 SE9       30.12R
A. F. ACADEMY  FAIR      47  22  36 S7        30.12R
SCHRIEVER AFB  NOT AVBL
CHEYENNE MTN   FAIR      49  20  31 SW6       30.09R
ELLICOTT         N/A    N/A N/A N/A S12       30.12R
FALCON         FAIR      46  22  39 S9        30.15S
FORT CARSON    FAIR      49  24  37 S8        30.10R
LIMON          FAIR      41  27  57 S5        30.08R
MONUMENT HILL  FAIR      43  27  52 S9        30.14S
CANON CITY     FAIR      52  32  46 N7        30.09R
WALSENBURG     NOT AVBL
TRINIDAD       FAIR      48  20  32 SE8       30.11S
$$

COZ042>045-048>051-090-091-260400-
...NORTHEAST COLORADO...

CITY           SKY/WX    TMP DP  RH WIND       PRES   REMARKS
GREELEY ARPT   FAIR      52  25  35 SE5       30.01S
AKRON          FAIR      49  32  52 S15       30.02F
BURLINGTON     FAIR      42  33  70 S12       30.06F
WRAY           FAIR      46  32  57 S7        30.04S
YUMA           FAIR      41  30  65 S9        30.03S
STERLING       NOT AVBL
HOLYOKE        FAIR      46  34  61 S10       30.01F
FORT MORGAN    FAIR      50  19  28 S5        30.01F
$$

COZ086-089-092>099-260400-
...SOUTHEAST COLORADO...

CITY           SKY/WX    TMP DP  RH WIND       PRES   REMARKS
PUEBLO         FAIR      53  30  41 SE7       30.07S
LA JUNTA       FAIR      52  34  50 S9        30.07R
LAMAR          FAIR      49  33  54 SE13      30.05F
SPRINGFIELD      N/A     41  29  62 S7        30.11S
$$




USA.gov is the U.S. government's official web portal to all federal, state and local government web resources and services.